Barrow, AK

10:20 AM AKST on February 25, 2017 (GMT -0900)
Atqasuk Edward Burnell Sr Mem

Weather History for PATQ - April, 2014

Change the Weather History Date:

Sunday, April 20, 2014

  Actual Average (PABR) Record (PABR)
Temperature  
Mean Temperature 2 °F -  
Max Temperature 15 °F 9 °F 34 °F (1931)
Min Temperature -9 °F -4 °F -28 °F (1994)
Degree Days  
Heating Degree Days 62    
Moisture  
Dew Point -3 °F    
Average Humidity 85    
Maximum Humidity 92    
Minimum Humidity 77    
Precipitation  
Precipitation 0.00 in - - ()
Sea Level Pressure  
Sea Level Pressure 30.18 in    
Wind  
Wind Speed 11 mph (ENE)    
Max Wind Speed 17 mph    
Max Gust Speed -    
Visibility 6 miles    
Events Fog , Snow    
Averages and records for this station are not official NWS values.
T = Trace of Precipitation, MM = Missing Value Source: NWS Daily Summary

Daily Weather History Graph

Daily Weather History Graph

Search for Another Location

Airport or City:

Trip Planner

Search our weather history database for the weather conditions in past years. The results will help you decide how hot, cold, wet, or windy it might be!

Date:

Astronomy

Apr. 20, 2014 Rise Set
Actual Time 5:54 AM AKDT 11:06 PM AKDT
Civil Twilight 4:13 AM AKDT 12:52 AM AKDT
Nautical Twilight Sun does not rise Sun does not rise
Astronomical Twilight Sun does not rise Sun does not rise
Moon 5:45 AM AKDT (4/20) 8:38 AM AKDT (4/20)
Length of Visible Light 20h 38m
Length of Day
17h 12m
Waning Gibbous, 67% of the Moon is Illuminated
Apr 20
Waning Gibbous
Apr 21
Last Quarter
Apr 28
New
May 6
First Quarter
May 14
Full

Hourly Weather History & Observations

Time (AKDT) Temp. Windchill Dew Point Humidity Pressure Visibility Wind Dir Wind Speed Gust Speed Precip Events Conditions
12:42 AM -5.8 °F -24.4 °F -9.4 °F 84% 30.10 in 10.0 mi ENE 11.5 mph - N/A   Mostly Cloudy
12:56 AM -4.9 °F -24.1 °F -8.9 °F 83% 30.12 in 10.0 mi ENE 12.7 mph - N/A   Scattered Clouds
1:56 AM -6.9 °F -24.8 °F -10.8 °F 83% 30.13 in 10.0 mi ENE 10.4 mph - N/A   Clear
2:18 AM -7.6 °F -25.7 °F -11.2 °F 84% 30.11 in 10.0 mi ENE 10.4 mph - N/A   Scattered Clouds
2:27 AM -7.6 °F -25.7 °F -11.2 °F 84% 30.11 in 10.0 mi ENE 10.4 mph - N/A   Mostly Cloudy
2:56 AM -8.0 °F -25.0 °F -11.9 °F 83% 30.14 in 10.0 mi ENE 9.2 mph - N/A   Overcast
3:15 AM -7.6 °F -24.6 °F -13.0 °F 77% 30.12 in 1.8 mi ENE 9.2 mph - 0.00 in Snow Light Snow
3:26 AM -9.4 °F -27.9 °F -13.0 °F 84% 30.12 in 1.2 mi ENE 10.4 mph - 0.00 in Snow Light Snow
3:33 AM -9.4 °F -27.9 °F -13.0 °F 84% 30.12 in 0.8 mi ENE 10.4 mph - 0.00 in Snow Light Snow
3:48 AM -7.6 °F -26.6 °F -11.2 °F 84% 30.12 in 0.5 mi ENE 11.5 mph - 0.00 in Fog , Snow Light Snow
3:56 AM -7.6 °F -26.6 °F -11.2 °F 84% 30.13 in 0.8 mi ENE 11.5 mph - N/A Snow Light Snow
4:56 AM -8.9 °F -26.2 °F -13.0 °F 82% 30.16 in 0.8 mi East 9.2 mph - 0.00 in Snow Light Snow
5:09 AM -9.4 °F -26.8 °F -14.8 °F 77% 30.13 in 0.2 mi East 9.2 mph - 0.00 in Snow Heavy Snow
5:56 AM -8.0 °F -27.1 °F -13.0 °F 79% 30.16 in 0.2 mi East 11.5 mph - 0.00 in Snow Heavy Snow
6:10 AM -7.6 °F -28.3 °F -11.2 °F 84% 30.14 in 0.2 mi East 13.8 mph - 0.00 in Fog , Snow Light Snow
6:56 AM -7.6 °F -24.6 °F -11.2 °F 84% 30.15 in 0.2 mi ENE 9.2 mph - N/A Fog , Snow Light Snow
7:19 AM -5.8 °F -22.4 °F -11.2 °F 77% 30.15 in 0.2 mi ENE 9.2 mph - 0.00 in Snow Heavy Snow
7:36 AM -7.6 °F -23.4 °F -11.2 °F 84% 30.16 in 0.5 mi ENE 8.1 mph - 0.00 in Fog , Snow Light Snow
7:42 AM -5.8 °F -22.4 °F -11.2 °F 77% 30.16 in 1.0 mi ENE 9.2 mph - 0.00 in Snow Light Snow
7:45 AM -5.8 °F -22.4 °F -11.2 °F 77% 30.16 in 1.5 mi ENE 9.2 mph - 0.00 in Snow Light Snow
7:49 AM -5.8 °F -22.4 °F -11.2 °F 77% 30.16 in 3.0 mi ENE 9.2 mph - 0.00 in Snow Light Snow
7:56 AM -6.0 °F -22.6 °F -9.9 °F 83% 30.18 in 6.0 mi ENE 9.2 mph - 0.00 in Snow Light Snow
8:56 AM -1.8 °F -12.0 °F -6.0 °F 83% 30.20 in 10.0 mi ENE 4.6 mph - 0.00 in Snow Light Snow
9:56 AM 1.4 °F -11.3 °F -2.2 °F 85% 30.17 in 10.0 mi ENE 6.9 mph - N/A Snow Light Snow
10:56 AM 5.0 °F -9.1 °F 2.1 °F 88% 30.21 in 10.0 mi ENE 9.2 mph - 0.00 in Snow Light Snow
11:56 AM 7.2 °F -4.3 °F 4.1 °F 87% 30.21 in 4.0 mi NE 6.9 mph - 0.00 in Snow Light Snow
12:04 PM 8.6 °F -3.7 °F 5.0 °F 85% 30.19 in 4.0 mi NE 8.1 mph - 0.00 in Snow Light Snow
12:56 PM 8.6 °F -7.0 °F 6.8 °F 92% 30.19 in 10.0 mi ENE 12.7 mph - N/A Snow Light Snow
1:41 PM 10.4 °F -4.8 °F 8.6 °F 92% 30.19 in 10.0 mi ENE 12.7 mph - 0.00 in Snow Light Snow
1:56 PM 11.1 °F -3.9 °F 8.1 °F 87% 30.22 in 7.0 mi ENE 12.7 mph - 0.00 in Snow Light Snow
2:56 PM 12.0 °F -3.4 °F 10.0 °F 92% 30.22 in 10.0 mi ENE 13.8 mph - 0.00 in Snow Light Snow
3:56 PM 14.0 °F -1.4 °F 10.4 °F 86% 30.20 in 10.0 mi East 15.0 mph - N/A Snow Light Snow
4:56 PM 14.0 °F -2.0 °F 12.0 °F 92% 30.23 in 10.0 mi East 16.1 mph - 0.00 in Snow Light Snow
5:56 PM 14.0 °F -1.4 °F 12.0 °F 92% 30.23 in 10.0 mi East 15.0 mph - 0.00 in Snow Light Snow
6:56 PM 12.2 °F -3.7 °F 10.4 °F 92% 30.21 in 7.0 mi East 15.0 mph - N/A Snow Light Snow
7:30 PM 12.2 °F -4.8 °F 10.4 °F 92% 30.21 in 2.5 mi East 17.3 mph - 0.00 in Snow Light Snow
7:38 PM 12.2 °F -4.8 °F 10.4 °F 92% 30.21 in 8.0 mi ENE 17.3 mph - 0.00 in Snow Light Snow
7:56 PM 12.0 °F -4.0 °F 9.1 °F 88% 30.24 in 10.0 mi East 15.0 mph - 0.00 in Snow Light Snow
8:32 PM 8.6 °F -8.3 °F 6.8 °F 92% 30.21 in 10.0 mi ENE 15.0 mph - 0.00 in Snow Light Snow
8:56 PM 9.1 °F -7.7 °F 7.2 °F 92% 30.24 in 2.5 mi ENE 15.0 mph - 0.00 in Snow Light Snow
9:08 PM 8.6 °F -7.0 °F 5.0 °F 85% 30.21 in 10.0 mi ENE 12.7 mph - 0.00 in Snow Light Snow
9:35 PM 5.0 °F -11.6 °F 1.4 °F 85% 30.22 in 10.0 mi ENE 12.7 mph - 0.00 in Snow Light Snow
9:56 PM 3.0 °F -14.1 °F 0.1 °F 88% 30.25 in 10.0 mi ENE 12.7 mph - 0.00 in   Partly Cloudy
10:26 PM 3.2 °F -14.6 °F -0.4 °F 85% 30.22 in 10.0 mi ENE 13.8 mph - N/A   Mostly Cloudy
10:56 PM 1.0 °F -15.8 °F -2.9 °F 83% 30.25 in 10.0 mi ENE 11.5 mph - N/A   Scattered Clouds
11:56 PM -2.9 °F -21.6 °F -6.9 °F 83% 30.25 in 10.0 mi East 12.7 mph - N/A   Clear